Flag for Maldives Weather past 2 weeks in Male, Maldives

Now
82 °F

Passing clouds.


Feels Like: 91 °F
Forecast: 82 / 87 °F
Wind: 6 mph from Southwest

Location: Male Airport

Current Time: Oct 21, 2014 at 6:00:07 AM

Latest Report: Oct 21, 2014 at 5:00 AM


Visibility: N/A

Pressure: 29.80 "Hg

Humidity: 84%

Dew point: 77 °F

Location of MaleLocation

Historic Weather in Male — Graph

°F

Male temperature yesterday

Maximum temperature yesterday: 88 °F (at 10:00 AM)
Minimum temperature yesterday: 82 °F (at 12:00 AM)
Average temperature yesterday: 85 °F

Past Weeks' High & Low Weather Summary

 TemperatureHumidityPressure
High88 °F (Oct 6, 12:00 PM)100% (Oct 17, 3:00 AM)29.95 "Hg (Oct 17, 3:00 AM)
Low75 °F (Oct 17, 3:00 AM)62% (Oct 19, 11:00 AM)29.74 "Hg (Oct 21, 2:00 AM)
Average84 °F80%29.84 "Hg
* Reported Oct 6 4:00 AM — Oct 21 4:00 AM, Male, Weather by CustomWeather, © 2014

Note: Actual official high and low records may vary slightly from our data, if they occured in-between our weather recording intervals... More about our weather records

Advertising

Male weather history for previous 24 hours

 ConditionsComfort  
Time TempWeatherWind HumidityBarometerVisibility
4:00 AM
Oct 21
82 °FPassing clouds.8 mph84%29.80 "HgN/A
3:00 AM84 °FPassing clouds.7 mph79%29.80 "HgN/A
2:00 AM84 °FPassing clouds.7 mph74%29.74 "HgN/A
1:00 AM84 °FPassing clouds.8 mph74%29.83 "HgN/A
12:00 AM84 °FPassing clouds.9 mph74%29.83 "HgN/A
11:00 PM
Oct 20
84 °FPassing clouds.5 mph74%29.86 "HgN/A
10:00 PM84 °FPassing clouds.6 mph74%29.86 "HgN/A
9:00 PM84 °FPassing clouds.9 mph74%29.86 "HgN/A
8:00 PM84 °FPassing clouds.12 mph74%29.83 "HgN/A
7:00 PM84 °FPassing clouds.10 mph74%29.80 "HgN/A
6:00 PM86 °FPassing clouds.9 mph70%29.80 "HgN/A
5:00 PM86 °FPartly sunny.10 mph70%29.77 "HgN/A
3:00 PM88 °FBroken clouds.10 mph66%29.77 "HgN/A
2:00 PM88 °FPartly sunny.13 mph66%29.77 "HgN/A
1:00 PM88 °FPartly sunny.10 mph66%29.80 "HgN/A
12:00 PM88 °FScattered clouds.12 mph66%29.83 "HgN/A
11:00 AM88 °FScattered clouds.12 mph62%29.86 "HgN/A
10:00 AM88 °FScattered clouds.10 mph62%29.86 "HgN/A
8:00 AM84 °FPartly sunny.10 mph70%29.86 "HgN/A
7:00 AM84 °FPartly sunny.9 mph70%29.83 "HgN/A
6:00 AM82 °FPartly sunny.10 mph79%29.80 "HgN/A
Weather by CustomWeather, © 2014

See weather overviewHow to use our weather pages